• In Deutschland
  • Länderverzeichnis
  • Für 7 Tage
  • Wassertemperatur
  • Satellitenkarten
  • Wetterkarte
  • Widgets
  • user-avatar
    Anmelden

    Stündliche Wetter Openki

    Heute, 17 Juli, Dienstag

    Zeit Temperatur Niederschläge Wind Luftdruck Luftfeuchtigkeit
    00:00 +22°C° 0,3 mm 5 m/S 750 mmHg 76%
    01:00 +22°C° 0 mm 5 m/S 750 mmHg 77%
    02:00 +22°C° 0 mm 5 m/S 750 mmHg 78%
    03:00 +21°C° 0 mm 6 m/S 750 mmHg 79%
    04:00 +22°C° 0 mm 6 m/S 750 mmHg 79%
    05:00 +22°C° 0 mm 6 m/S 750 mmHg 78%
    06:00 +22°C° 0 mm 7 m/S 750 mmHg 77%
    07:00 +24°C° 0 mm 7 m/S 750 mmHg 70%
    08:00 +26°C° 0 mm 7 m/S 750 mmHg 63%
    09:00 +28°C° 0 mm 7 m/S 750 mmHg 56%
    10:00 +29°C° 0 mm 8 m/S 750 mmHg 52%
    11:00 +31°C° 0 mm 8 m/S 750 mmHg 48%
    12:00 +32°C° 0 mm 8 m/S 750 mmHg 45%
    13:00 +32°C° 0 mm 8 m/S 750 mmHg 43%
    14:00 +32°C° 0 mm 8 m/S 750 mmHg 42%
    15:00 +33°C° 0 mm 8 m/S 750 mmHg 41%
    16:00 +32°C° 0 mm 7 m/S 750 mmHg 43%
    17:00 +30°C° 0 mm 7 m/S 750 mmHg 44%
    18:00 +29°C° 0 mm 6 m/S 750 mmHg 46%
    19:00 +28°C° 0 mm 5 m/S 751 mmHg 50%
    20:00 +27°C° 0 mm 5 m/S 751 mmHg 54%
    21:00 +26°C° 0 mm 4 m/S 751 mmHg 58%
    22:00 +25°C° 0,2 mm 4 m/S 751 mmHg 64%
    23:00 +23°C° 0,2 mm 5 m/S 751 mmHg 69%

    Morgen, 18 Juli, Mittwoch

    Zeit Temperatur Niederschläge Wind Luftdruck Luftfeuchtigkeit
    00:00 +23°C° 0,2 mm 5 m/S 752 mmHg 75%
    01:00 +22°C° 0,1 mm 5 m/S 752 mmHg 77%
    02:00 +22°C° 0,1 mm 5 m/S 752 mmHg 79%
    03:00 +22°C° 0,1 mm 4 m/S 752 mmHg 82%
    04:00 +22°C° 0 mm 5 m/S 752 mmHg 81%
    05:00 +22°C° 0 mm 5 m/S 752 mmHg 80%
    06:00 +22°C° 0 mm 5 m/S 752 mmHg 80%
    07:00 +25°C° 0 mm 5 m/S 752 mmHg 72%
    08:00 +26°C° 0 mm 6 m/S 752 mmHg 65%
    09:00 +28°C° 0 mm 6 m/S 752 mmHg 58%
    10:00 +29°C° 0 mm 6 m/S 752 mmHg 53%
    11:00 +30°C° 0 mm 6 m/S 751 mmHg 48%
    12:00 +33°C° 0 mm 6 m/S 751 mmHg 44%
    13:00 +33°C° 0 mm 6 m/S 751 mmHg 42%
    14:00 +33°C° 0 mm 6 m/S 751 mmHg 41%
    15:00 +33°C° 0 mm 6 m/S 751 mmHg 40%
    16:00 +33°C° 0 mm 5 m/S 751 mmHg 41%
    17:00 +33°C° 0 mm 4 m/S 751 mmHg 42%
    18:00 +32°C° 0 mm 4 m/S 751 mmHg 43%
    19:00 +30°C° 0 mm 3 m/S 751 mmHg 47%
    20:00 +29°C° 0 mm 2 m/S 751 mmHg 50%
    21:00 +27°C° 0 mm 1 m/S 752 mmHg 54%
    22:00 +27°C° 0,2 mm 1 m/S 751 mmHg 56%
    23:00 +26°C° 0,2 mm 1 m/S 751 mmHg 59%

    übermorgen, 19 Juli, Donnerstag

    Zeit Temperatur Niederschläge Wind Luftdruck Luftfeuchtigkeit
    00:00 +25°C° 0,2 mm 1 m/S 751 mmHg 61%
    01:00 +25°C° 0,4 mm 1 m/S 751 mmHg 65%
    02:00 +24°C° 0,4 mm 1 m/S 751 mmHg 69%
    03:00 +24°C° 0,4 mm 1 m/S 751 mmHg 73%
    04:00 +24°C° 0,4 mm 1 m/S 751 mmHg 73%
    05:00 +24°C° 0,4 mm 1 m/S 752 mmHg 74%
    06:00 +25°C° 0,4 mm 1 m/S 752 mmHg 74%
    07:00 +26°C° 0,3 mm 1 m/S 752 mmHg 70%
    08:00 +27°C° 0,3 mm 1 m/S 752 mmHg 66%
    09:00 +28°C° 0,3 mm 1 m/S 752 mmHg 62%
    10:00 +30°C° 0 mm 2 m/S 752 mmHg 57%
    11:00 +31°C° 0 mm 2 m/S 752 mmHg 52%
    12:00 +32°C° 0 mm 2 m/S 752 mmHg 47%
    13:00 +34°C° 0 mm 2 m/S 752 mmHg 43%
    14:00 +35°C° 0 mm 2 m/S 751 mmHg 40%
    15:00 +36°C° 0 mm 2 m/S 751 mmHg 36%
    16:00 +35°C° 0 mm 2 m/S 751 mmHg 38%
    17:00 +35°C° 0 mm 2 m/S 751 mmHg 39%
    18:00 +34°C° 0 mm 2 m/S 751 mmHg 41%
    19:00 +32°C° 0 mm 2 m/S 751 mmHg 44%
    20:00 +31°C° 0 mm 2 m/S 752 mmHg 48%
    21:00 +29°C° 0 mm 2 m/S 752 mmHg 51%
    22:00 +28°C° 0 mm 2 m/S 752 mmHg 54%
    23:00 +28°C° 0 mm 2 m/S 752 mmHg 56%

    20 Juli, Freitag

    Zeit Temperatur Niederschläge Wind Luftdruck Luftfeuchtigkeit
    00:00 +27°C° 0 mm 2 m/S 752 mmHg 59%
    01:00 +26°C° 0 mm 2 m/S 752 mmHg 61%
    02:00 +26°C° 0 mm 2 m/S 752 mmHg 63%
    03:00 +25°C° 0 mm 2 m/S 752 mmHg 66%
    04:00 +26°C° 0,1 mm 1 m/S 752 mmHg 66%
    05:00 +26°C° 0,1 mm 1 m/S 752 mmHg 66%
    06:00 +24°C° 0,1 mm 0 m/S 752 mmHg 67%
    07:00 +28°C° 0 mm 1 m/S 752 mmHg 60%
    08:00 +30°C° 0 mm 1 m/S 752 mmHg 53%
    09:00 +32°C° 0 mm 1 m/S 753 mmHg 47%
    10:00 +33°C° 0 mm 1 m/S 752 mmHg 43%
    11:00 +35°C° 0 mm 2 m/S 752 mmHg 39%
    12:00 +36°C° 0 mm 2 m/S 752 mmHg 35%
    13:00 +36°C° 0 mm 2 m/S 752 mmHg 35%
    14:00 +37°C° 0 mm 2 m/S 752 mmHg 34%
    15:00 +37°C° 0 mm 2 m/S 752 mmHg 34%
    16:00 +36°C° 0 mm 1 m/S 752 mmHg 35%
    17:00 +35°C° 0 mm 1 m/S 752 mmHg 36%
    18:00 +35°C° 0 mm 1 m/S 752 mmHg 37%
    19:00 +33°C° 0,1 mm 1 m/S 752 mmHg 40%
    20:00 +32°C° 0,1 mm 1 m/S 752 mmHg 43%
    21:00 +30°C° 0,1 mm 1 m/S 752 mmHg 47%
    22:00 +30°C° 0,2 mm 1 m/S 752 mmHg 49%
    23:00 +29°C° 0,2 mm 1 m/S 752 mmHg 51%

    21 Juli, Samstag

    Zeit Temperatur Niederschläge Wind Luftdruck Luftfeuchtigkeit
    00:00 +28°C° 0,2 mm 1 m/S 752 mmHg 54%
    01:00 +28°C° 0,1 mm 1 m/S 752 mmHg 56%
    02:00 +27°C° 0,1 mm 1 m/S 752 mmHg 58%
    03:00 +27°C° 0,1 mm 1 m/S 752 mmHg 60%
    04:00 +27°C° 0,4 mm 1 m/S 752 mmHg 62%
    05:00 +27°C° 0,4 mm 2 m/S 752 mmHg 63%
    06:00 +27°C° 0,4 mm 2 m/S 753 mmHg 65%
    07:00 +28°C° 0,3 mm 2 m/S 753 mmHg 60%
    08:00 +30°C° 0,3 mm 2 m/S 753 mmHg 56%
    09:00 +31°C° 0,3 mm 2 m/S 753 mmHg 52%
    10:00 +32°C° 0 mm 2 m/S 753 mmHg 47%
    11:00 +35°C° 0 mm 2 m/S 753 mmHg 43%
    12:00 +36°C° 0 mm 2 m/S 753 mmHg 38%
    13:00 +37°C° 0 mm 2 m/S 752 mmHg 36%
    14:00 +37°C° 0 mm 2 m/S 752 mmHg 33%
    15:00 +38°C° 0 mm 2 m/S 752 mmHg 31%
    16:00 +37°C° 0 mm 2 m/S 752 mmHg 32%
    17:00 +36°C° 0 mm 1 m/S 752 mmHg 34%
    18:00 +35°C° 0 mm 1 m/S 752 mmHg 36%
    19:00 +34°C° 0,1 mm 1 m/S 752 mmHg 39%
    20:00 +32°C° 0,1 mm 1 m/S 752 mmHg 43%
    21:00 +31°C° 0,1 mm 1 m/S 752 mmHg 46%
    22:00 +29°C° 0,9 mm 2 m/S 753 mmHg 52%
    23:00 +28°C° 0,9 mm 2 m/S 753 mmHg 58%

    22 Juli, Sonntag

    Zeit Temperatur Niederschläge Wind Luftdruck Luftfeuchtigkeit
    00:00 +27°C° 0,9 mm 3 m/S 753 mmHg 64%
    01:00 +27°C° 0 mm 2 m/S 753 mmHg 67%
    02:00 +27°C° 0 mm 2 m/S 753 mmHg 70%
    03:00 +26°C° 0 mm 2 m/S 753 mmHg 73%
    04:00 +26°C° 0,1 mm 2 m/S 753 mmHg 73%
    05:00 +26°C° 0,1 mm 2 m/S 753 mmHg 74%
    06:00 +26°C° 0,1 mm 2 m/S 753 mmHg 74%
    07:00 +28°C° 0 mm 2 m/S 753 mmHg 68%
    08:00 +29°C° 0 mm 2 m/S 753 mmHg 61%
    09:00 +31°C° 0 mm 2 m/S 753 mmHg 55%
    10:00 +32°C° 0 mm 2 m/S 753 mmHg 51%
    11:00 +34°C° 0 mm 2 m/S 753 mmHg 47%
    12:00 +35°C° 0 mm 3 m/S 753 mmHg 43%
    13:00 +35°C° 0 mm 3 m/S 752 mmHg 42%
    14:00 +35°C° 0 mm 3 m/S 752 mmHg 40%
    15:00 +35°C° 0 mm 3 m/S 752 mmHg 39%
    16:00 +35°C° 0 mm 3 m/S 752 mmHg 40%
    17:00 +35°C° 0 mm 3 m/S 752 mmHg 41%
    18:00 +35°C° 0 mm 3 m/S 752 mmHg 43%
    19:00 +33°C° 0 mm 3 m/S 752 mmHg 47%
    20:00 +31°C° 0 mm 3 m/S 752 mmHg 52%
    21:00 +29°C° 0 mm 2 m/S 752 mmHg 57%
    22:00 +29°C° 0,2 mm 2 m/S 752 mmHg 59%
    23:00 +28°C° 0,2 mm 2 m/S 752 mmHg 62%
    Mehr zeigen